EW6171 Weather Reports


Display with metric or nautical units.
time (UTC)temp
F
wind
direction
speed
MPH
gust
MPH
rain 1hr
in
rain 24hr
in
rain mn
in
humidity
%
barometer
mb
20260506202041 0 10 8.0 11.0 0.00 0.00 0.00 1005.5
20260506201802 0 10 7.0 11.0 0.00 0.00 0.00 1005.6
20260506201021 0 10 8.0 11.0 0.00 0.00 0.00 1005.6
20260506200511 0 10 7.0 11.0 0.00 0.00 0.00 1005.7
20260506200001 0 10 6.0 10.0 0.00 0.00 0.00 1005.8
20260506195451 0 10 7.0 10.0 0.00 0.00 0.00 1005.8
20260506194941 0 10 6.0 10.0 0.00 0.00 0.00 1005.8
20260506194702 0 10 3.0 10.0 0.00 0.00 0.00 1005.9
20260506193921 0 175 1.0 5.0 0.00 0.00 0.00 1006.0
20260506193411 0 191 1.0 4.0 0.00 0.00 0.00 1006.1
20260506192613 0 10 0.0 4.0 0.00 0.00 0.00 1006.3
20260506192103 0 104 0.0 3.0 0.00 0.00 0.00 1006.4
20260506191319 0 117 0.0 3.0 0.00 0.00 0.00 1006.4
20260506191041 0 106 0.0 3.0 0.00 0.00 0.00 1006.5
20260506190542 0 124 0.0 3.0 0.00 0.00 0.00 1006.6
20260506185801 0 10 0.0 3.0 0.00 0.00 0.00 1006.7
20260506185252 0 10 0.0 3.0 0.00 0.00 0.00 1006.8
20260506184741 0 125 0.0 2.0 0.00 0.00 0.00 1006.9
20260506184509 0 138 1.0 4.0 0.00 0.00 0.00 1006.9
20260506183958 0 10 2.0 6.0 0.00 0.00 0.00 1007.0
20260506183217 0 10 3.0 6.0 0.00 0.00 0.00 1007.1
20260506182707 0 10 3.0 6.0 0.00 0.00 0.00 1007.2
20260506182157 0 10 4.0 8.0 0.00 0.00 0.00 1007.2
20260506181918 0 10 4.0 8.0 0.00 0.00 0.00 1007.2
20260506181406 0 10 5.0 9.0 0.00 0.00 0.00 1007.2
20260506180856 0 133 6.0 9.0 0.00 0.00 0.00 1007.3
20260506180115 0 10 6.0 10.0 0.00 0.00 0.00 1007.3
20260506175605 0 10 7.0 10.0 0.00 0.00 0.00 1007.2
20260506175055 0 10 8.0 11.0 0.00 0.00 0.00 1007.2
20260506174817 0 10 8.0 11.0 0.00 0.00 0.00 1007.2
20260506174035 0 163 8.0 11.0 0.00 0.00 0.00 1007.2
20260506173525 0 10 9.0 12.0 0.00 0.00 0.00 1007.2
20260506173015 0 10 7.0 12.0 0.00 0.00 0.00 1007.2
20260506172459 0 10 6.0 10.0 0.00 0.00 0.00 1007.3
20260506172222 0 10 6.0 10.0 0.00 0.00 0.00 1007.3
20260506171451 0 10 7.0 11.0 0.00 0.00 0.00 1007.2
20260506170942 0 10 8.0 11.0 0.00 0.00 0.00 1007.2
20260506170431 0 10 7.0 11.0 0.00 0.00 0.00 1007.2
20260506165920 0 10 7.0 10.0 0.00 0.00 0.00 1007.3
20260506165411 0 10 6.0 10.0 0.00 0.00 0.00 1007.3
20260506164901 0 10 5.0 9.0 0.00 0.00 0.00 1007.2
20260506164352 0 10 3.0 8.0 0.00 0.00 0.00 1007.3
20260506164113 0 10 2.0 4.0 0.00 0.00 0.00 1007.3
20260506163325 0 10 3.0 7.0 0.00 0.00 0.00 1007.3
20260506163039 0 131 3.0 8.0 0.00 0.00 0.00 1007.2
20260506162257 0 10 4.0 8.0 0.00 0.00 0.00 1007.2
20260506162019 0 10 4.0 6.0 0.00 0.00 0.00 1007.1
20260506161237 0 10 4.0 8.0 0.00 0.00 0.00 1007.0
20260506160730 0 10 4.0 8.0 0.00 0.00 0.00 1007.0
20260506160222 0 10 4.0 8.0 0.00 0.00 0.00 1006.9
20260506155943 0 10 6.0 10.0 0.00 0.00 0.00 1006.8
20260506155434 0 10 6.0 9.0 0.00 0.00 0.00 1006.8
20260506154657 0 10 7.0 11.0 0.00 0.00 0.00 1006.6
20260506154156 0 10 7.0 11.0 0.00 0.00 0.00 1006.6
20260506153646 0 10 7.0 11.0 0.00 0.00 0.00 1006.5
20260506153143 0 10 8.0 11.0 0.00 0.00 0.00 1006.6
20260506152637 0 10 8.0 11.0 0.00 0.00 0.00 1006.4
20260506152131 0 10 9.0 11.0 0.00 0.00 0.00 1006.4
20260506151625 0 10 8.0 11.0 0.00 0.00 0.00 1006.3
20260506151122 0 10 7.0 11.0 0.00 0.00 0.00 1006.2
20260506150847 0 114 9.0 11.0 0.00 0.00 0.00 1006.3
20260506150112 0 10 9.0 12.0 0.00 0.00 0.00 1006.1
20260506145608 0 129 9.0 12.0 0.00 0.00 0.00 1006.1
20260506145335 0 126 9.0 12.0 0.00 0.00 0.00 1006.1
20260506144556 0 10 9.0 12.0 0.00 0.00 0.00 1006.1
20260506144324 0 10 8.0 11.0 0.00 0.00 0.00 1006.1
20260506143547 0 10 7.0 11.0 0.00 0.00 0.00 1006.0
20260506143313 0 10 7.0 10.0 0.00 0.00 0.00 1005.9
20260506142538 0 125 7.0 11.0 0.00 0.00 0.00 1005.8
20260506142026 0 10 8.0 11.0 0.00 0.00 0.00 1005.8
20260506141518 0 111 6.0 10.0 0.00 0.00 0.00 1005.8
20260506141017 0 117 5.0 9.0 0.00 0.00 0.00 1006.1
20260506140512 0 121 5.0 9.0 0.00 0.00 0.00 1006.0
20260506135959 0 117 5.0 9.0 0.00 0.00 0.00 1006.0
20260506135451 0 118 4.0 8.0 0.00 0.00 0.00 1006.1
20260506134949 0 117 4.0 8.0 0.00 0.00 0.00 1006.0
20260506134711 0 115 5.0 9.0 0.00 0.00 0.00 1005.9
20260506133933 0 108 4.0 8.0 0.00 0.00 0.00 1005.9
20260506133427 0 108 4.0 8.0 0.00 0.00 0.00 1006.0
20260506132926 0 102 5.0 8.0 0.00 0.00 0.00 1005.9
20260506132422 0 124 4.0 8.0 0.00 0.00 0.00 1005.8
20260506131916 0 127 4.0 8.0 0.00 0.00 0.00 1005.8
20260506131400 0 10 3.0 8.0 0.00 0.00 0.00 1005.9
20260506130853 0 115 4.0 7.0 0.00 0.00 0.00 1005.9
20260506130617 0 116 4.0 7.0 0.00 0.00 0.00 1005.9
20260506125842 0 117 4.0 7.0 0.00 0.00 0.00 1005.8
20260506125329 0 111 3.0 7.0 0.00 0.00 0.00 1005.8
20260506124820 0 120 2.0 4.0 0.00 0.00 0.00 1005.9
20260506124312 0 116 2.0 4.0 0.00 0.00 0.00 1005.9
20260506124023 0 137 3.0 6.0 0.00 0.00 0.00 1005.8
20260506123246 0 10 3.0 4.0 0.00 0.00 0.00 1005.7
20260506122736 0 121 2.0 4.0 0.00 0.00 0.00 1005.7
20260506122228 0 10 3.0 4.0 0.00 0.00 0.00 1005.7
20260506121726 0 125 2.0 4.0 0.00 0.00 0.00 1005.7
20260506121217 0 127 2.0 4.0 0.00 0.00 0.00 1005.6
20260506120706 0 124 2.0 4.0 0.00 0.00 0.00 1005.6
20260506120156 0 129 2.0 4.0 0.00 0.00 0.00 1005.5
20260506115647 0 118 2.0 4.0 0.00 0.00 0.00 1005.5
20260506115408 0 131 2.0 4.0 0.00 0.00 0.00 1005.4
20260506114626 0 127 3.0 5.0 0.00 0.00 0.00 1005.4
20260506114117 0 10 2.0 5.0 0.00 0.00 0.00 1005.3
20260506113606 0 137 2.0 6.0 0.00 0.00 0.00 1005.3
20260506113056 0 138 3.0 6.0 0.00 0.00 0.00 1005.3
20260506112546 0 10 4.0 8.0 0.00 0.00 0.00 1005.4
20260506112036 0 10 4.0 9.0 0.00 0.00 0.00 1005.3
20260506111526 0 139 4.0 9.0 0.00 0.00 0.00 1005.3
20260506111017 0 10 3.0 8.0 0.00 0.00 0.00 1005.3
20260506110504 0 10 3.0 9.0 0.00 0.00 0.00 1005.3
20260506105954 0 10 2.0 9.0 0.00 0.00 0.00 1005.3
20260506105444 0 10 0.0 2.0 0.00 0.00 0.00 1005.4
20260506104934 0 10 0.0 2.0 0.00 0.00 0.00 1005.5
20260506104424 0 10 0.0 1.0 0.00 0.00 0.00 1005.5
20260506103915 0 10 0.0 2.0 0.00 0.00 0.00 1005.5
20260506103406 0 10 0.0 2.0 0.00 0.00 0.00 1005.3
20260506102857 0 10 0.0 6.0 0.00 0.00 0.00 1005.2
20260506102343 0 10 0.0 6.0 0.00 0.00 0.00 1005.3
20260506102103 0 156 0.0 3.0 0.00 0.00 0.00 1005.3
20260506101322 0 156 0.0 1.0 0.00 0.00 0.00 1005.3
20260506101043 0 139 0.0 1.0 0.00 0.00 0.00 1005.3
20260506100255 0 150 0.0 2.0 0.00 0.00 0.00 1005.1
20260506100015 0 10 0.0 2.0 0.00 0.00 0.00 1005.0
20260506095234 0 144 0.0 0.0 0.00 0.00 0.00 1004.9
20260506094724 0 112 0.0 0.0 0.00 0.00 0.00 1005.0
20260506094219 0 112 0.0 0.0 0.00 0.00 0.00 1005.2
20260506093709 0 116 0.0 1.0 0.00 0.00 0.00 1005.1
20260506093158 0 117 0.0 0.0 0.00 0.00 0.00 1005.1
20260506092649 0 117 0.0 1.0 0.00 0.00 0.00 1005.0
20260506092138 0 115 0.0 1.0 0.00 0.00 0.00 1005.1
20260506091628 0 119 0.0 1.0 0.00 0.00 0.00 1005.0
20260506091118 0 117 0.0 1.0 0.00 0.00 0.00 1005.0
20260506090609 0 113 0.0 1.0 0.00 0.00 0.00 1005.1
20260506090057 0 113 0.0 2.0 0.00 0.00 0.00 1005.0
20260506085549 0 129 0.0 2.0 0.00 0.00 0.00 1005.0
20260506085038 0 140 1.0 2.0 0.00 0.00 0.00 1005.0
20260506084528 0 143 1.0 3.0 0.00 0.00 0.00 1005.0
20260506084018 0 135 1.0 3.0 0.00 0.00 0.00 1005.0
20260506083506 0 127 2.0 4.0 0.00 0.00 0.00 1005.0
20260506082956 0 126 2.0 4.0 0.00 0.00 0.00 1005.1
20260506082452 0 116 2.0 6.0 0.00 0.00 0.00 1005.1
20260506081942 0 133 3.0 4.0 0.00 0.00 0.00 1005.1
20260506081704 0 123 3.0 6.0 0.00 0.00 0.00 1005.0
20260506080922 0 128 3.0 5.0 0.00 0.00 0.00 1005.1
20260506080410 0 138 2.0 6.0 0.00 0.00 0.00 1005.2
20260506080124 0 133 2.0 6.0 0.00 0.00 0.00 1005.3
20260506073304 0 10 5.0 10.0 0.00 0.00 0.00 1005.6
20260506072752 0 10 5.0 10.0 0.00 0.00 0.00 1005.6
20260506072513 0 161 4.0 9.0 0.00 0.00 0.00 1005.7
20260506071732 0 10 3.0 9.0 0.00 0.00 0.00 1005.7
20260506071223 0 10 3.0 6.0 0.00 0.00 0.00 1005.9
20260506070712 0 10 3.0 6.0 0.00 0.00 0.00 1006.0
20260506070203 0 138 3.0 6.0 0.00 0.00 0.00 1006.2
20260506062044 0 10 4.0 9.0 0.00 0.00 0.00 1006.3
20260506061534 0 10 3.0 9.0 0.00 0.00 0.00 1006.3
20260506061023 0 10 4.0 9.0 0.00 0.00 0.00 1006.3
20260506060512 0 10 4.0 10.0 0.00 0.00 0.00 1006.3
20260506051350 0 10 9.0 13.0 0.00 0.00 0.00 1005.9
20260506050843 0 10 9.0 13.0 0.00 0.00 0.00 1005.9
20260506050338 0 194 9.0 12.0 0.00 0.00 0.00 1005.9
20260506044820 0 10 11.0 15.0 0.00 0.00 0.00 1005.8
20260506044318 0 10 9.0 15.0 0.00 0.00 0.00 1005.8
20260506043808 0 10 8.0 14.0 0.00 0.00 0.00 1005.8
20260506043305 0 10 9.0 14.0 0.00 0.00 0.00 1005.8
20260506042801 0 10 10.0 14.0 0.00 0.00 0.00 1005.7
20260506042254 0 10 10.0 13.0 0.00 0.00 0.00 1005.6
20260506041748 0 164 10.0 13.0 0.00 0.00 0.00 1005.7
20260506041245 0 10 9.0 13.0 0.00 0.00 0.00 1005.7
20260506040737 0 10 9.0 12.0 0.00 0.00 0.00 1005.7
20260506040232 0 10 10.0 12.0 0.00 0.00 0.00 1005.9
20260506035959 0 10 10.0 12.0 0.00 0.00 0.00 1005.8
20260506035217 0 10 9.0 12.0 0.00 0.00 0.00 1005.7
20260506034947 0 10 8.0 12.0 0.00 0.00 0.00 1005.7
20260506034205 0 10 9.0 13.0 0.00 0.00 0.00 1005.7
20260506033702 0 10 9.0 13.0 0.00 0.00 0.00 1005.7
20260506033150 0 10 9.0 12.0 0.00 0.00 0.00 1005.6
20260506032645 0 10 8.0 12.0 0.00 0.00 0.00 1005.6
20260506032141 0 10 9.0 12.0 0.00 0.00 0.00 1005.5
20260506031639 0 10 7.0 12.0 0.00 0.00 0.00 1005.5
20260506031128 0 138 6.0 12.0 0.00 0.00 0.00 1005.5
20260506030855 0 10 7.0 12.0 0.00 0.00 0.00 1005.5
20260506030119 0 10 9.0 12.0 0.00 0.00 0.00 1005.4
20260506025612 0 10 9.0 14.0 0.00 0.00 0.00 1005.3
20260506025334 0 10 9.0 14.0 0.00 0.00 0.00 1005.2
20260506024556 0 10 8.0 11.0 0.00 0.00 0.00 1005.1
20260506024320 0 10 8.0 12.0 0.00 0.00 0.00 1005.1
20260506023809 0 10 9.0 12.0 0.00 0.00 0.00 1004.9
20260506022524 0 10 9.0 14.0 0.00 0.00 0.00 1004.8
20260506022015 0 10 9.0 12.0 0.00 0.00 0.00 1004.7
20260506021515 0 10 9.0 14.0 0.00 0.00 0.00 1004.7
20260506021016 0 10 9.0 14.0 0.00 0.00 0.00 1004.7
20260506020507 0 10 6.0 12.0 0.00 0.00 0.00 1004.6
20260506020228 0 10 2.0 12.0 0.00 0.00 0.00 1004.5
20260506015447 0 10 0.0 5.0 0.00 0.00 0.00 1004.5
20260506014937 0 147 2.0 12.0 0.00 0.00 0.00 1004.4
20260506014425 0 10 3.0 12.0 0.00 0.00 0.00 1004.3
20260506013915 0 10 5.0 14.0 0.00 0.00 0.00 1004.4
20260506013636 0 10 9.0 14.0 0.00 0.00 0.00 1004.4
20260506012854 0 10 9.0 13.0 0.00 0.00 0.00 1004.3
20260506012345 0 10 10.0 13.0 0.00 0.00 0.00 1004.2
20260506011833 0 10 11.0 12.0 0.00 0.00 0.00 1004.1
20260506011553 0 10 11.0 14.0 0.00 0.00 0.00 1004.0
20260506010813 0 10 11.0 14.0 0.00 0.00 0.00 1003.9
20260506010303 0 10 11.0 15.0 0.00 0.00 0.00 1004.0
20260506010023 0 10 11.0 15.0 0.00 0.00 0.00 1003.8
20260506005243 0 10 10.0 13.0 0.00 0.00 0.00 1003.8
20260506004732 0 10 10.0 15.0 0.00 0.00 0.00 1003.6
20260506004223 0 10 11.0 15.0 0.00 0.00 0.00 1003.6
20260506003943 0 10 10.0 14.0 0.00 0.00 0.00 1003.6
20260506003203 0 10 10.0 13.0 0.00 0.00 0.00 1003.7
20260506002652 0 10 11.0 15.0 0.00 0.00 0.00 1003.6
20260506002140 0 10 11.0 15.0 0.00 0.00 0.00 1003.6
20260506001625 0 10 11.0 15.0 0.00 0.00 0.00 1003.6
20260506001347 0 10 11.0 15.0 0.00 0.00 0.00 1003.6
20260506000604 0 10 11.0 14.0 0.00 0.00 0.00 1003.6
20260506000056 0 10 11.0 15.0 0.00 0.00 0.00 1003.7
20260505235543 0 10 11.0 15.0 0.00 0.00 0.00 1003.7
20260505235033 0 10 11.0 16.0 0.00 0.00 0.00 1003.7
20260505234528 0 185 12.0 16.0 0.00 0.00 0.00 1003.7
20260505234019 0 10 12.0 16.0 0.00 0.00 0.00 1003.7
20260505233739 0 168 11.0 15.0 0.00 0.00 0.00 1003.7
20260505233227 0 10 11.0 16.0 0.00 0.00 0.00 1003.7
20260505232456 0 10 12.0 16.0 0.00 0.00 0.00 1003.7
20260505232218 0 10 12.0 16.0 0.00 0.00 0.00 1003.7
20260505231434 0 10 11.0 16.0 0.00 0.00 0.00 1003.7
20260505230933 0 10 11.0 15.0 0.00 0.00 0.00 1003.7
20260505230434 0 10 11.0 15.0 0.00 0.00 0.00 1003.9
20260505225923 0 210 11.0 14.0 0.00 0.00 0.00 1003.9
20260505225412 0 163 11.0 17.0 0.00 0.00 0.00 1003.9
20260505224903 0 10 12.0 17.0 0.00 0.00 0.00 1003.9
20260505224352 0 10 12.0 16.0 0.00 0.00 0.00 1003.9
20260505223843 0 10 12.0 16.0 0.00 0.00 0.00 1004.0
20260505223604 0 10 12.0 15.0 0.00 0.00 0.00 1004.0
20260505222824 0 10 12.0 15.0 0.00 0.00 0.00 1004.1
20260505222313 0 10 12.0 15.0 0.00 0.00 0.00 1004.0
20260505221803 0 10 11.0 14.0 0.00 0.00 0.00 1004.1
20260505221252 0 10 11.0 15.0 0.00 0.00 0.00 1004.1
20260505220743 0 10 11.0 15.0 0.00 0.00 0.00 1004.0
20260505220504 0 10 12.0 16.0 0.00 0.00 0.00 1004.2
20260505215723 0 10 12.0 16.0 0.00 0.00 0.00 1004.2
20260505215212 0 161 11.0 15.0 0.00 0.00 0.00 1004.4
20260505214702 0 10 11.0 15.0 0.00 0.00 0.00 1004.4
20260505214423 0 10 11.0 15.0 0.00 0.00 0.00 1004.6
20260505213643 0 10 11.0 14.0 0.00 0.00 0.00 1004.5
20260505213404 0 10 12.0 16.0 0.00 0.00 0.00 1004.6
20260505212624 0 153 11.0 16.0 0.00 0.00 0.00 1004.6
20260505212112 0 163 11.0 15.0 0.00 0.00 0.00 1004.8
20260505211603 0 10 11.0 14.0 0.00 0.00 0.00 1004.7
20260505211052 0 10 11.0 15.0 0.00 0.00 0.00 1004.7
20260505210544 0 10 11.0 15.0 0.00 0.00 0.00 1004.8
20260505210303 0 10 11.0 15.0 0.00 0.00 0.00 1004.8
20260505205523 0 10 10.0 15.0 0.00 0.00 0.00 1004.8
20260505205012 0 10 11.0 14.0 0.00 0.00 0.00 1004.9
20260505204503 0 10 11.0 15.0 0.00 0.00 0.00 1004.9
20260505204224 0 10 12.0 15.0 0.00 0.00 0.00 1005.0
20260505203442 0 158 12.0 15.0 0.00 0.00 0.00 1005.1
20260505202932 0 145 12.0 15.0 0.00 0.00 0.00 1005.1
20260505202422 0 10 12.0 15.0 0.00 0.00 0.00 1005.2